Location: Newark
(49.8348°N, 24.0280°E)
Time: 18:01:31
(UTC+00:00)

Transit 2A - Pass Details

Date: 23 January 2020
Orbit: 600 x 959 km, 66.7° (Epoch: 22 February)

Event Time Altitude Azimuth Distance (km) Brightness Sun altitude
Rises 17:19:14 0° 155° (SSE) 2,894 - -21.7°
Reaches altitude 10° 17:23:50 10° 111° (ESE) 1,952 - -22.4°
Maximum altitude 17:24:17 10° 105° (ESE) 1,941 - -22.5°
Drops below altitude 10° 17:24:44 10° 99° (E) 1,949 - -22.6°
Sets 17:29:15 0° 55° (NE) 2,857 - -23.3°
